Terminal Aerodrome Forecast
Issued by NWS

Home | Current Version | Previous Version | Text Only | Print | Product List | Glossary On
Versions: 1 2 3 4 5 6 7 8 9 10 11 12 13 14 15 16 17 18 19 20 21 22 23 24 25 26
000
FTUS41 KGYX 221120
TAFRKD
TAF
KRKD 221120Z 2212/2312 03015G25KT 6SM BR OVC015
     FM221600 05017G25KT 4SM -RA BR OVC007 WS020/03050KT
     FM230100 05019G27KT 4SM -RA BR OVC007
      AMD LTD TO CLD VIS AND WIND=

USA.gov is the U.S. government's official web portal to all federal, state and local government web resources and services.